Tracking 19146 objects as of 24-Apr-2018
HD Live streaming from Space Station
objects crossing your sky now

COSMOS 970 DEB

Track COSMOS 970 DEB now!
10-day predictions


NORAD ID: 12862
Int'l Code: 1977-121AQ
Perigee: 775.7 km
Apogee: 990.6 km
Inclination: 66.2 °
Period: 102.5 minutes
Semi major axis: 7254 km
RCS: 0.0129 m2 (small)
Launch date: December 21, 1977
Source: Commonwealth of Independent States (former USSR) (CIS)
Launch site: TYURATAM MISSILE AND SPACE COMPLEX (TTMTR)

Note: This is SATELLITE DEBRIS
aabbcc
Your satellite tracking list
Your tracking list is empty




NASA's NSSDC Master Catalog

Two Line Element Set (TLE):
1 12862U 77121AQ  18113.58958130 +.00000318 +00000-0 +22559-3 0  9998
2 12862 066.2106 192.5377 0148134 175.3687 298.5067 14.05150847931874
Source of the keplerian elements: AFSPC